Regional Weather Roundup
Issued by NWS

Home | Current Version | Previous Version | Graphics & Text | Print | Product List | Glossary On
Versions: 1 2 3 4 5 6 7 8 9 10 11 12 13 14 15 16 17 18 19 20 21 22 23 24 25 26 27 28 29 30 31 32 33 34 35 36 37 38 39 40 41 42 43 44 45 46 47 48 49 50
000
ASUS43 KFSD 291202
RWRSD

WEATHER ROUNDUP FOR SOUTH DAKOTA
NATIONAL WEATHER SERVICE SIOUX FALLS SD
700 AM CDT FRI APR 29 2016

NOTE: "FAIR" INDICATES FEW OR NO CLOUDS BELOW 12,000 FEET WITH NO
SIGNIFICANT WEATHER AND/OR OBSTRUCTIONS TO VISIBILITY.


SDZ001>005-009-010-012>017-291300-
NORTHWEST AND NORTH CENTRAL SOUTH DAKOTA

CITY           SKY/WX    TMP DP  RH WIND       PRES   REMARKS
BUFFALO          N/A     37  34  89 E3        30.04S
FAITH            N/A     36  31  82 CALM      30.13R
MOBRIDGE       CLOUDY    41  38  89 CALM      30.12R
$$

SDZ012>016-024>037-041>051-057-063-072>074-291300-
SOUTHWEST AND SOUTH CENTRAL SOUTH DAKOTA

CITY           SKY/WX    TMP DP  RH WIND       PRES   REMARKS
RAPID CTY ARPT CLOUDY    36  34  92 CALM      30.11S
PIERRE         CLOUDY    38  35  89 S3        30.15R
CUSTER         CLOUDY    30  28  92 NE5       30.05S WCI  25
ELLSWORTH AFB  CLOUDY    36  36 100 S3        30.11R
PHILIP         CLOUDY    39  36  89 CALM      30.14R
PINE RIDGE     CLOUDY    37  33  85 CALM      30.12R
WINNER         CLOUDY    40  36  86 E8        30.12S
$$

SDZ004>011-016>023-039-040-291300-
NORTHEAST SOUTH DAKOTA

CITY           SKY/WX    TMP DP  RH WIND       PRES   REMARKS
ABERDEEN       PTCLDY    32  30  92 S6        30.19R FOG     WCI  26
WATERTOWN      CLOUDY    35  33  92 CALM      30.17R FOG
BROOKINGS      PTCLDY    35  34  96 NE3       30.15R FOG
SISSETON         N/A     38  36  92 W3        30.17R
$$

SDZ017-020-022-023-036>040-048>070-291300-
SOUTHEAST SOUTH DAKOTA

CITY           SKY/WX    TMP DP  RH WIND       PRES   REMARKS
SIOUX FALLS    CLOUDY    39  37  92 NE7       30.15R
HURON          CLOUDY    38  37  97 NE10      30.16F
MITCHELL       CLOUDY    40  37  89 N3        30.17R
YANKTON        CLOUDY    39  37  93 N6        30.13S
$$

ABBREVIATIONS USED IN REMARKS
   TC - TEMPERATURE IN CELSIUS
  WCI - WIND CHILL INDEX
   HX - HEAT INDEX
  VSB - VISIBILITY




USA.gov is the U.S. government's official web portal to all federal, state and local government web resources and services.